Starlink 5916

operational
NORAD ID: 55988 Int'l Des: 2023-042 Owner: SPXS Country: US Constellation: starlink
LEOCIRCULAR

Über Starlink 5916

Beschreibung wird geladen...

Live-Position

3D-Globus wird geladen...

Nächste Überflüge

Höhenverlauf

Altitude vs Time

uPlot chart will show altitude changes over time

Zweizeiliger Elementsatz

1 55988U 23042C 25303.00464903 .00002783 00000-0 22091-3 0 9992
2 55988 43.0041 46.0844 0001424 270.1733 89.8946 15.02552320143253
Epoch: 30. Okt. 2025 • Age: 23 hours

Aktueller Status

Höhe 563.0 km
Geschwindigkeit 7.59 km/s
Subsatellitenpunkt 42.33°N, 121.8°E
Startdatum 24. März 2023
Alter 2.6 years
Typ internet

Technische Details

Klassifizierung Payload
Masse 305.00 kg
Trockenmasse 290.00 kg
Gesamtmasse 305.00 kg
Länge 0.20 m
Durchmesser 2.80 m
Spannweite 9.00 m
Form Box + pan
Hersteller SPXS
Bus-Typ Starlink
Phasenstatus In Orbit
Besitzer/Staat SPXS/US

Große Konstellationen

Loading constellations...